TJS-2

Last updated on Sun Jun 21 2026 00:03:07 GMT+0000 (Coordinated Universal Time)

1 41911U 17001A 26171.40519869 -.00000011 00000+0 00000+0 0 9995 2 41911 0.8427 85.2876 0000422 52.6310 343.1096 1.00270493 34751
UTC large
Height (km)
Speed (km/s)
/
Latitude / Longitude
Inclination (degrees)
Orbital Period (minutes)
Azimuth
Elevation
Range (km)
Doppler Factor

Next 0 passes for location: London (51.5072 / 0.1276)

No passes found over London.
TJS-2